U vindt ons ook hier:

Het Weer Aktueel

UK Metoffice

European Weather Network

Weather Underground

Citizen Weather Observer Program (CWOP)



Het weer levert geen direct gevaar op.    Er zijn geen waarschuwingen afgegeven.

Select another period ( hide this area )

Eenheden Periode Custom range Directly to
Metrisch Engels Beide
Dagelijkse Wekelijkse Maandelijkse Jaarlijkse
use both date-selectors for a custom range
previous Dag
With this date

WeatherUnderground graphs for this period ( click here )


Dagelijkse Samenvatting Donderdag 29 oktober 2020
Tijd Temp. ( °C ) Dew pt. ( °C ) Wind ( km/h ) van Windvlaag ( km/h ) Luchtdruk ( hPa ) Humid.( % ) Rainrate ( cm ) Zonneschijn ( W/m2 )
Hoog11,7 8,6 18,0 Westen ( 532/1174 ) 35,0 1015,5 83 6,60 202
Gemiddeld9,2 6,2 6,9 WZW #84/170 17,5 1011,1 81 5,30 112 #80/170
Laag7,4 4,3 3,0   6,0 1005,5 79 -  
Dagelijkse Tabular details for Donderdag 29 oktober 2020
Tijd Temp. ( °C ) Dew pt. ( °C ) Wind ( km/h ) van Windvlaag ( km/h ) Luchtdruk ( hPa ) Humid.( % ) Rainrate ( cm ) Zonneschijn ( W/m2 )
00:04 9,8 7,1 11,0 Westen 24,0 1005,5 83 3,56 -
00:09 9,7 6,9 11,0 Westen 24,0 1005,5 83 4,32 -
00:14 9,6 6,7 11,0 Westen 24,0 1005,7 82 5,08 -
00:19 9,6 6,7 15,0 Westen 35,0 1005,8 82 5,33 -
00:24 9,4 6,5 18,0 Westen 35,0 1005,8 82 6,10 -
00:29 9,1 6,2 18,0 Westen 35,0 1005,6 82 6,10 -
00:34 8,9 5,8 11,0 Westen 32,0 1005,7 81 6,10 -
00:39 8,7 5,8 8,0 Westen 18,0 1005,8 82 6,35 -
00:44 8,8 5,9 11,0 Westen 26,0 1005,9 82 6,60 -
00:49 8,9 6,0 13,0 Westen 26,0 1005,9 82 6,60 -
00:54 8,9 6,0 13,0 Westen 26,0 1005,9 82 5,84 -
00:59 8,9 6,0 11,0 Westen 23,0 1006,0 82 4,32 -
01:04 8,8 5,9 10,0 Westen 23,0 1006,0 82 3,81 -
01:09 8,8 5,9 10,0 Westen 23,0 1006,0 82 3,30 -
01:14 8,7 5,8 10,0 Westen 23,0 1006,2 82 2,29 -
01:19 8,8 5,9 8,0 WZW 19,0 1006,3 82 1,78 -
01:24 8,8 6,1 6,0 WZW 16,0 1006,3 83 1,52 -
01:29 8,9 6,2 6,0 WZW 16,0 1006,3 83 0,76 -
01:34 9,0 6,3 6,0 WZW 16,0 1006,5 83 0,76 -
01:39 9,1 6,4 8,0 WZW 18,0 1006,7 83 1,02 -
01:44 9,1 6,4 11,0 Westen 26,0 1006,8 83 0,76 -
01:49 9,1 6,4 11,0 Westen 26,0 1006,8 83 0,51 -
01:54 9,1 6,4 11,0 Westen 26,0 1006,8 83 0,25 -
01:59 9,0 6,3 11,0 Westen 21,0 1006,8 83 0,25 -
02:04 8,9 6,2 8,0 Westen 19,0 1007,0 83 0,25 -
02:09 8,9 6,2 8,0 Westen 18,0 1007,0 83 0,25 -
02:14 8,9 6,2 8,0 Westen 18,0 1007,0 83 0,25 -
02:19 8,8 6,1 6,0 WZW 16,0 1007,1 83 0,25 -
02:24 8,8 5,9 5,0 WZW 13,0 1007,2 82 0,25 -
02:29 8,7 5,8 6,0 WZW 15,0 1007,2 82 0,25 -
02:34 8,6 5,7 6,0 WZW 15,0 1007,3 82 0,25 -
02:39 8,4 5,5 8,0 WZW 15,0 1007,4 82 0,25 -
02:44 8,4 5,5 6,0 WZW 16,0 1007,3 82 - -
02:49 8,4 5,7 6,0 WZW 16,0 1007,3 83 - -
02:54 8,4 5,7 6,0 WZW 16,0 1007,3 83 - -
02:59 8,5 5,8 6,0 WZW 16,0 1007,4 83 - -
03:04 8,4 5,7 6,0 WZW 16,0 1007,5 83 - -
03:09 8,4 5,7 5,0 WZW 13,0 1007,5 83 - -
03:14 8,4 5,7 5,0 Westen 13,0 1007,6 83 - -
03:19 8,3 5,6 5,0 Westen 13,0 1007,7 83 - -
03:24 8,3 5,6 5,0 Westen 16,0 1007,8 83 - -
03:29 8,3 5,6 6,0 Westen 16,0 1007,8 83 - -
03:34 8,2 5,5 6,0 Westen 16,0 1007,9 83 - -
03:39 8,2 5,5 5,0 Westen 11,0 1007,9 83 - -
03:44 8,2 5,5 5,0 Westen 13,0 1008,0 83 - -
03:49 8,1 5,4 5,0 WZW 15,0 1007,9 83 - -
03:54 8,1 5,2 5,0 Westen 15,0 1008,1 82 - -
03:59 8,1 5,2 5,0 WZW 15,0 1008,2 82 - -
04:04 8,1 5,2 5,0 WZW 21,0 1008,3 82 - -
04:09 8,1 5,2 5,0 WZW 21,0 1008,3 82 - -
04:14 8,1 5,2 6,0 WZW 21,0 1008,4 82 - -
04:19 8,2 5,3 8,0 WZW 19,0 1008,5 82 - -
04:24 8,3 5,4 8,0 Westen 21,0 1008,6 82 - -
04:29 8,4 5,5 10,0 Westen 21,0 1008,7 82 - -
04:34 8,5 5,5 10,0 Westen 21,0 1008,8 82 - -
04:39 8,6 5,5 10,0 Westen 19,0 1008,9 81 - -
04:44 8,6 5,5 8,0 Westen 19,0 1008,9 81 - -
04:49 8,5 5,4 8,0 Westen 21,0 1009,1 81 - -
04:54 8,6 5,5 8,0 Westen 21,0 1009,3 81 - -
04:59 8,6 5,5 6,0 Westen 21,0 1009,4 81 - -
05:04 8,6 5,5 5,0 Westen 15,0 1009,4 81 - -
05:09 8,6 5,3 6,0 Westen 18,0 1009,5 80 - -
05:14 8,6 5,3 6,0 Westen 18,0 1009,6 80 - -
05:19 8,6 5,3 6,0 Westen 18,0 1009,7 80 - -
05:24 8,6 5,3 6,0 WZW 18,0 1009,8 80 - -
05:29 8,5 5,2 6,0 Westen 18,0 1009,9 80 - -
05:34 8,4 5,2 6,0 Westen 18,0 1009,9 80 - -
05:39 8,4 5,2 6,0 Westen 15,0 1009,9 80 - -
05:44 8,4 5,2 6,0 Westen 16,0 1010,0 80 - -
05:49 8,4 5,2 6,0 Westen 16,0 1010,1 80 - -
05:54 8,3 5,1 5,0 Westen 16,0 1010,2 80 - -
05:59 8,3 5,1 5,0 Westen 11,0 1010,2 80 - -
06:04 8,2 4,9 3,0 WZW 11,0 1010,3 80 - -
06:09 8,2 4,9 3,0 WZW 10,0 1010,4 80 - -
06:14 8,1 4,8 5,0 WZW 13,0 1010,5 80 - -
06:19 8,1 4,8 5,0 WZW 13,0 1010,6 80 - -
06:24 7,9 4,7 3,0 WZW 13,0 1010,7 80 - -
06:29 7,9 4,7 3,0 WZW 10,0 1010,8 80 - -
06:34 7,8 4,6 3,0 WZW 10,0 1010,9 80 - -
06:39 7,8 4,7 3,0 WZW 6,0 1011,0 81 - -
06:44 7,7 4,7 3,0 WZW 10,0 1011,0 81 - -
06:49 7,7 4,7 3,0 WZW 10,0 1011,1 81 - -
06:54 7,6 4,6 3,0 WZW 10,0 1011,1 81 - -
06:59 7,6 4,6 5,0 WZW 13,0 1011,2 81 - -
07:04 7,5 4,4 3,0 WZW 13,0 1011,2 81 - -
07:09 7,4 4,3 3,0 WZW 13,0 1011,3 81 - -
07:14 7,4 4,3 5,0 WZW 11,0 1011,3 81 - -
07:19 7,4 4,3 3,0 WZW 11,0 1011,5 81 - -
07:24 7,4 4,3 3,0 WZW 11,0 1011,6 81 - -
07:29 7,4 4,5 5,0 Westen 10,0 1011,6 82 - -
07:34 7,4 4,5 5,0 Westen 16,0 1011,8 82 - 5
07:39 7,4 4,5 5,0 Westen 16,0 1011,9 82 - 9
07:44 7,6 4,7 6,0 Westen 16,0 1011,9 82 - 12
07:49 7,6 4,7 6,0 Westen 16,0 1012,0 82 - 19
07:54 7,8 4,9 8,0 Westen 23,0 1012,0 82 - 26
07:59 7,9 5,0 8,0 Westen 23,0 1012,1 82 - 37
08:04 8,1 5,1 6,0 Westen 23,0 1012,2 82 - 44
08:09 8,2 5,1 8,0 Westen 18,0 1012,3 81 - 51
08:14 8,3 5,2 6,0 WZW 18,0 1012,4 81 - 58
08:19 8,4 5,3 8,0 Westen 18,0 1012,4 81 - 60
08:24 8,6 5,5 6,0 Westen 16,0 1012,5 81 - 67
08:29 8,7 5,6 6,0 Westen 16,0 1012,5 81 - 72
08:34 8,8 5,7 6,0 Westen 15,0 1012,6 81 - 107
08:39 8,9 5,8 6,0 Westen 15,0 1012,6 81 - 84
08:44 9,0 5,9 5,0 Westen 15,0 1012,6 81 - 70
08:49 9,1 6,0 5,0 WZW 15,0 1012,9 81 - 93
08:54 9,1 5,8 5,0 WZW 15,0 1012,9 80 - 97
08:59 9,1 5,8 5,0 WZW 15,0 1012,9 80 - 91
09:04 9,2 5,9 5,0 WZW 13,0 1013,1 80 - 90
09:09 9,2 6,1 3,0 WZW 13,0 1013,2 81 - 118
09:14 9,2 6,1 3,0 WZW 11,0 1013,3 81 - 118
09:19 9,2 6,1 3,0 WZW 13,0 1013,3 81 - 121
09:24 9,3 6,2 3,0 WZW 13,0 1013,4 81 - 102
09:29 9,3 6,2 3,0 Westen 13,0 1013,5 81 - 116
09:34 9,4 6,3 3,0 Westen 11,0 1013,7 81 - 127
09:39 9,5 6,3 3,0 WZW 11,0 1013,8 81 - 127
09:44 9,6 6,3 5,0 WZW 11,0 1013,8 80 - 118
09:49 9,7 6,6 5,0 WZW 11,0 1013,9 81 - 111
09:54 9,7 6,6 5,0 WZW 11,0 1014,1 81 - 116
09:59 9,7 6,4 5,0 WZW 13,0 1014,1 80 - 121
10:04 9,8 6,5 5,0 WZW 13,0 1014,2 80 - 123
10:09 9,8 6,5 5,0 WZW 13,0 1014,3 80 - 120
10:14 9,9 6,6 5,0 WZW 13,0 1014,3 80 - 135
10:19 10,1 6,8 5,0 Westen 13,0 1014,4 80 - 141
10:24 10,2 6,9 5,0 Westen 13,0 1014,4 80 - 148
10:29 10,4 7,1 3,0 WZW 13,0 1014,5 80 - 162
10:34 10,4 7,1 5,0 WZW 16,0 1014,6 80 - 160
10:39 10,6 7,2 6,0 WZW 16,0 1014,6 80 - 149
10:44 10,6 7,1 6,0 WZW 16,0 1014,7 79 - 148
10:49 10,7 7,4 6,0 WZW 15,0 1014,7 80 - 139
10:54 10,7 7,4 6,0 WZW 18,0 1014,7 80 - 109
10:59 10,7 7,4 6,0 WZW 18,0 1014,8 80 - 81
11:04 10,7 7,4 6,0 ZW 18,0 1014,9 80 - 79
11:09 10,6 7,5 8,0 ZW 16,0 1015,0 81 - 76
11:14 10,6 7,5 8,0 ZW 16,0 1015,1 81 - 70
11:19 10,6 7,5 8,0 ZW 16,0 1015,2 81 - 98
11:24 10,5 7,4 8,0 ZW 16,0 1015,2 81 - 120
11:29 10,5 7,4 8,0 WZW 15,0 1015,2 81 - 120
11:34 10,5 7,4 6,0 WZW 15,0 1015,2 81 - 91
11:39 10,6 7,5 5,0 WZW 15,0 1015,2 81 - 105
11:44 10,6 7,5 6,0 WZW 16,0 1015,3 81 - 113
11:49 10,6 7,5 8,0 WZW 16,0 1015,3 81 - 114
11:54 10,7 7,6 8,0 WZW 16,0 1015,2 81 - 113
11:59 10,7 7,6 6,0 WZW 15,0 1015,2 81 - 114
12:04 10,7 7,6 6,0 WZW 16,0 1015,3 81 - 120
12:09 10,8 7,7 8,0 ZW 19,0 1015,3 81 - 125
12:14 10,8 7,7 8,0 WZW 19,0 1015,3 81 - 123
12:19 10,9 7,8 8,0 WZW 19,0 1015,3 81 - 114
12:24 10,9 7,8 6,0 WZW 15,0 1015,4 81 - 120
12:29 11,0 7,9 6,0 WZW 18,0 1015,4 81 - 123
12:34 11,1 7,9 8,0 WZW 18,0 1015,3 81 - 120
12:39 11,2 8,1 8,0 WZW 19,0 1015,4 81 - 114
12:44 11,2 8,1 6,0 ZW 19,0 1015,4 81 - 114
12:49 11,2 8,1 8,0 ZW 19,0 1015,3 81 - 155
12:54 11,4 8,3 10,0 ZW 19,0 1015,3 81 - 192
12:59 11,5 8,3 11,0 ZW 29,0 1015,4 81 - 192
13:04 11,6 8,4 11,0 ZW 29,0 1015,4 81 - 185
13:09 11,7 8,6 13,0 ZW 29,0 1015,4 81 - 197
13:14 11,7 8,6 13,0 ZW 29,0 1015,5 81 - 202
13:19 11,7 8,6 13,0 WZW 29,0 1015,5 81 - 188
13:24 11,7 8,6 13,0 ZW 29,0 1015,4 81 - 178
13:29 11,7 8,6 11,0 ZW 27,0 1015,4 81 - 141
13:34 11,7 8,6 11,0 ZW 27,0 1015,4 81 - 125
13:39 11,7 8,6 10,0 ZW 19,0 1015,4 81 - 123
13:44 11,7 8,6 10,0 ZW 19,0 1015,4 81 - 135
13:49 11,7 8,6 10,0 WZW 19,0 1015,4 81 - 148
13:54 11,7 8,6 10,0 WZW 19,0 1015,4 81 - 146
13:59 11,7 8,6 8,0 WZW 19,0 1015,4 81 - 127
14:04 11,7 8,6 8,0 WZW 19,0 1015,4 81 - 127
14:09 11,7 8,6 10,0 WZW 21,0 1015,4 81 - 127
Dagelijkse Samenvatting Donderdag 29 oktober 2020
Tijd Temp. ( °C ) Dew pt. ( °C ) Wind ( km/h ) van Windvlaag ( km/h ) Luchtdruk ( hPa ) Humid.( % ) Rainrate ( cm ) Zonneschijn ( W/m2 )
Hoog11,7 8,6 18,0 Westen ( 532/1174 ) 35,0 1015,5 83 6,60 202
Gemiddeld9,2 6,2 6,9 WZW #84/170 17,5 1011,1 81 5,30 112 #80/170
Laag7,4 4,3 3,0   6,0 1005,5 79 -  
Dagelijkse Tabular details for Donderdag 29 oktober 2020
Tijd Temp. ( °C ) Dew pt. ( °C ) Wind ( km/h ) van Windvlaag ( km/h ) Luchtdruk ( hPa ) Humid.( % ) Rainrate ( cm ) Zonneschijn ( W/m2 )
00:04 9,8 7,1 11,0 Westen 24,0 1005,5 83 3,56 -
00:09 9,7 6,9 11,0 Westen 24,0 1005,5 83 4,32 -
00:14 9,6 6,7 11,0 Westen 24,0 1005,7 82 5,08 -
00:19 9,6 6,7 15,0 Westen 35,0 1005,8 82 5,33 -
00:24 9,4 6,5 18,0 Westen 35,0 1005,8 82 6,10 -
00:29 9,1 6,2 18,0 Westen 35,0 1005,6 82 6,10 -
00:34 8,9 5,8 11,0 Westen 32,0 1005,7 81 6,10 -
00:39 8,7 5,8 8,0 Westen 18,0 1005,8 82 6,35 -
00:44 8,8 5,9 11,0 Westen 26,0 1005,9 82 6,60 -
00:49 8,9 6,0 13,0 Westen 26,0 1005,9 82 6,60 -
00:54 8,9 6,0 13,0 Westen 26,0 1005,9 82 5,84 -
00:59 8,9 6,0 11,0 Westen 23,0 1006,0 82 4,32 -
01:04 8,8 5,9 10,0 Westen 23,0 1006,0 82 3,81 -
01:09 8,8 5,9 10,0 Westen 23,0 1006,0 82 3,30 -
01:14 8,7 5,8 10,0 Westen 23,0 1006,2 82 2,29 -
01:19 8,8 5,9 8,0 WZW 19,0 1006,3 82 1,78 -
01:24 8,8 6,1 6,0 WZW 16,0 1006,3 83 1,52 -
01:29 8,9 6,2 6,0 WZW 16,0 1006,3 83 0,76 -
01:34 9,0 6,3 6,0 WZW 16,0 1006,5 83 0,76 -
01:39 9,1 6,4 8,0 WZW 18,0 1006,7 83 1,02 -
01:44 9,1 6,4 11,0 Westen 26,0 1006,8 83 0,76 -
01:49 9,1 6,4 11,0 Westen 26,0 1006,8 83 0,51 -
01:54 9,1 6,4 11,0 Westen 26,0 1006,8 83 0,25 -
01:59 9,0 6,3 11,0 Westen 21,0 1006,8 83 0,25 -
02:04 8,9 6,2 8,0 Westen 19,0 1007,0 83 0,25 -
02:09 8,9 6,2 8,0 Westen 18,0 1007,0 83 0,25 -
02:14 8,9 6,2 8,0 Westen 18,0 1007,0 83 0,25 -
02:19 8,8 6,1 6,0 WZW 16,0 1007,1 83 0,25 -
02:24 8,8 5,9 5,0 WZW 13,0 1007,2 82 0,25 -
02:29 8,7 5,8 6,0 WZW 15,0 1007,2 82 0,25 -
02:34 8,6 5,7 6,0 WZW 15,0 1007,3 82 0,25 -
02:39 8,4 5,5 8,0 WZW 15,0 1007,4 82 0,25 -
02:44 8,4 5,5 6,0 WZW 16,0 1007,3 82 - -
02:49 8,4 5,7 6,0 WZW 16,0 1007,3 83 - -
02:54 8,4 5,7 6,0 WZW 16,0 1007,3 83 - -
02:59 8,5 5,8 6,0 WZW 16,0 1007,4 83 - -
03:04 8,4 5,7 6,0 WZW 16,0 1007,5 83 - -
03:09 8,4 5,7 5,0 WZW 13,0 1007,5 83 - -
03:14 8,4 5,7 5,0 Westen 13,0 1007,6 83 - -
03:19 8,3 5,6 5,0 Westen 13,0 1007,7 83 - -
03:24 8,3 5,6 5,0 Westen 16,0 1007,8 83 - -
03:29 8,3 5,6 6,0 Westen 16,0 1007,8 83 - -
03:34 8,2 5,5 6,0 Westen 16,0 1007,9 83 - -
03:39 8,2 5,5 5,0 Westen 11,0 1007,9 83 - -
03:44 8,2 5,5 5,0 Westen 13,0 1008,0 83 - -
03:49 8,1 5,4 5,0 WZW 15,0 1007,9 83 - -
03:54 8,1 5,2 5,0 Westen 15,0 1008,1 82 - -
03:59 8,1 5,2 5,0 WZW 15,0 1008,2 82 - -
04:04 8,1 5,2 5,0 WZW 21,0 1008,3 82 - -
04:09 8,1 5,2 5,0 WZW 21,0 1008,3 82 - -
04:14 8,1 5,2 6,0 WZW 21,0 1008,4 82 - -
04:19 8,2 5,3 8,0 WZW 19,0 1008,5 82 - -
04:24 8,3 5,4 8,0 Westen 21,0 1008,6 82 - -
04:29 8,4 5,5 10,0 Westen 21,0 1008,7 82 - -
04:34 8,5 5,5 10,0 Westen 21,0 1008,8 82 - -
04:39 8,6 5,5 10,0 Westen 19,0 1008,9 81 - -
04:44 8,6 5,5 8,0 Westen 19,0 1008,9 81 - -
04:49 8,5 5,4 8,0 Westen 21,0 1009,1 81 - -
04:54 8,6 5,5 8,0 Westen 21,0 1009,3 81 - -
04:59 8,6 5,5 6,0 Westen 21,0 1009,4 81 - -
05:04 8,6 5,5 5,0 Westen 15,0 1009,4 81 - -
05:09 8,6 5,3 6,0 Westen 18,0 1009,5 80 - -
05:14 8,6 5,3 6,0 Westen 18,0 1009,6 80 - -
05:19 8,6 5,3 6,0 Westen 18,0 1009,7 80 - -
05:24 8,6 5,3 6,0 WZW 18,0 1009,8 80 - -
05:29 8,5 5,2 6,0 Westen 18,0 1009,9 80 - -
05:34 8,4 5,2 6,0 Westen 18,0 1009,9 80 - -
05:39 8,4 5,2 6,0 Westen 15,0 1009,9 80 - -
05:44 8,4 5,2 6,0 Westen 16,0 1010,0 80 - -
05:49 8,4 5,2 6,0 Westen 16,0 1010,1 80 - -
05:54 8,3 5,1 5,0 Westen 16,0 1010,2 80 - -
05:59 8,3 5,1 5,0 Westen 11,0 1010,2 80 - -
06:04 8,2 4,9 3,0 WZW 11,0 1010,3 80 - -
06:09 8,2 4,9 3,0 WZW 10,0 1010,4 80 - -
06:14 8,1 4,8 5,0 WZW 13,0 1010,5 80 - -
06:19 8,1 4,8 5,0 WZW 13,0 1010,6 80 - -
06:24 7,9 4,7 3,0 WZW 13,0 1010,7 80 - -
06:29 7,9 4,7 3,0 WZW 10,0 1010,8 80 - -
06:34 7,8 4,6 3,0 WZW 10,0 1010,9 80 - -
06:39 7,8 4,7 3,0 WZW 6,0 1011,0 81 - -
06:44 7,7 4,7 3,0 WZW 10,0 1011,0 81 - -
06:49 7,7 4,7 3,0 WZW 10,0 1011,1 81 - -
06:54 7,6 4,6 3,0 WZW 10,0 1011,1 81 - -
06:59 7,6 4,6 5,0 WZW 13,0 1011,2 81 - -
07:04 7,5 4,4 3,0 WZW 13,0 1011,2 81 - -
07:09 7,4 4,3 3,0 WZW 13,0 1011,3 81 - -
07:14 7,4 4,3 5,0 WZW 11,0 1011,3 81 - -
07:19 7,4 4,3 3,0 WZW 11,0 1011,5 81 - -
07:24 7,4 4,3 3,0 WZW 11,0 1011,6 81 - -
07:29 7,4 4,5 5,0 Westen 10,0 1011,6 82 - -
07:34 7,4 4,5 5,0 Westen 16,0 1011,8 82 - 5
07:39 7,4 4,5 5,0 Westen 16,0 1011,9 82 - 9
07:44 7,6 4,7 6,0 Westen 16,0 1011,9 82 - 12
07:49 7,6 4,7 6,0 Westen 16,0 1012,0 82 - 19
07:54 7,8 4,9 8,0 Westen 23,0 1012,0 82 - 26
07:59 7,9 5,0 8,0 Westen 23,0 1012,1 82 - 37
08:04 8,1 5,1 6,0 Westen 23,0 1012,2 82 - 44
08:09 8,2 5,1 8,0 Westen 18,0 1012,3 81 - 51
08:14 8,3 5,2 6,0 WZW 18,0 1012,4 81 - 58
08:19 8,4 5,3 8,0 Westen 18,0 1012,4 81 - 60
08:24 8,6 5,5 6,0 Westen 16,0 1012,5 81 - 67
08:29 8,7 5,6 6,0 Westen 16,0 1012,5 81 - 72
08:34 8,8 5,7 6,0 Westen 15,0 1012,6 81 - 107
08:39 8,9 5,8 6,0 Westen 15,0 1012,6 81 - 84
08:44 9,0 5,9 5,0 Westen 15,0 1012,6 81 - 70
08:49 9,1 6,0 5,0 WZW 15,0 1012,9 81 - 93
08:54 9,1 5,8 5,0 WZW 15,0 1012,9 80 - 97
08:59 9,1 5,8 5,0 WZW 15,0 1012,9 80 - 91
09:04 9,2 5,9 5,0 WZW 13,0 1013,1 80 - 90
09:09 9,2 6,1 3,0 WZW 13,0 1013,2 81 - 118
09:14 9,2 6,1 3,0 WZW 11,0 1013,3 81 - 118
09:19 9,2 6,1 3,0 WZW 13,0 1013,3 81 - 121
09:24 9,3 6,2 3,0 WZW 13,0 1013,4 81 - 102
09:29 9,3 6,2 3,0 Westen 13,0 1013,5 81 - 116
09:34 9,4 6,3 3,0 Westen 11,0 1013,7 81 - 127
09:39 9,5 6,3 3,0 WZW 11,0 1013,8 81 - 127
09:44 9,6 6,3 5,0 WZW 11,0 1013,8 80 - 118
09:49 9,7 6,6 5,0 WZW 11,0 1013,9 81 - 111
09:54 9,7 6,6 5,0 WZW 11,0 1014,1 81 - 116
09:59 9,7 6,4 5,0 WZW 13,0 1014,1 80 - 121
10:04 9,8 6,5 5,0 WZW 13,0 1014,2 80 - 123
10:09 9,8 6,5 5,0 WZW 13,0 1014,3 80 - 120
10:14 9,9 6,6 5,0 WZW 13,0 1014,3 80 - 135
10:19 10,1 6,8 5,0 Westen 13,0 1014,4 80 - 141
10:24 10,2 6,9 5,0 Westen 13,0 1014,4 80 - 148
10:29 10,4 7,1 3,0 WZW 13,0 1014,5 80 - 162
10:34 10,4 7,1 5,0 WZW 16,0 1014,6 80 - 160
10:39 10,6 7,2 6,0 WZW 16,0 1014,6 80 - 149
10:44 10,6 7,1 6,0 WZW 16,0 1014,7 79 - 148
10:49 10,7 7,4 6,0 WZW 15,0 1014,7 80 - 139
10:54 10,7 7,4 6,0 WZW 18,0 1014,7 80 - 109
10:59 10,7 7,4 6,0 WZW 18,0 1014,8 80 - 81
11:04 10,7 7,4 6,0 ZW 18,0 1014,9 80 - 79
11:09 10,6 7,5 8,0 ZW 16,0 1015,0 81 - 76
11:14 10,6 7,5 8,0 ZW 16,0 1015,1 81 - 70
11:19 10,6 7,5 8,0 ZW 16,0 1015,2 81 - 98
11:24 10,5 7,4 8,0 ZW 16,0 1015,2 81 - 120
11:29 10,5 7,4 8,0 WZW 15,0 1015,2 81 - 120
11:34 10,5 7,4 6,0 WZW 15,0 1015,2 81 - 91
11:39 10,6 7,5 5,0 WZW 15,0 1015,2 81 - 105
11:44 10,6 7,5 6,0 WZW 16,0 1015,3 81 - 113
11:49 10,6 7,5 8,0 WZW 16,0 1015,3 81 - 114
11:54 10,7 7,6 8,0 WZW 16,0 1015,2 81 - 113
11:59 10,7 7,6 6,0 WZW 15,0 1015,2 81 - 114
12:04 10,7 7,6 6,0 WZW 16,0 1015,3 81 - 120
12:09 10,8 7,7 8,0 ZW 19,0 1015,3 81 - 125
12:14 10,8 7,7 8,0 WZW 19,0 1015,3 81 - 123
12:19 10,9 7,8 8,0 WZW 19,0 1015,3 81 - 114
12:24 10,9 7,8 6,0 WZW 15,0 1015,4 81 - 120
12:29 11,0 7,9 6,0 WZW 18,0 1015,4 81 - 123
12:34 11,1 7,9 8,0 WZW 18,0 1015,3 81 - 120
12:39 11,2 8,1 8,0 WZW 19,0 1015,4 81 - 114
12:44 11,2 8,1 6,0 ZW 19,0 1015,4 81 - 114
12:49 11,2 8,1 8,0 ZW 19,0 1015,3 81 - 155
12:54 11,4 8,3 10,0 ZW 19,0 1015,3 81 - 192
12:59 11,5 8,3 11,0 ZW 29,0 1015,4 81 - 192
13:04 11,6 8,4 11,0 ZW 29,0 1015,4 81 - 185
13:09 11,7 8,6 13,0 ZW 29,0 1015,4 81 - 197
13:14 11,7 8,6 13,0 ZW 29,0 1015,5 81 - 202
13:19 11,7 8,6 13,0 WZW 29,0 1015,5 81 - 188
13:24 11,7 8,6 13,0 ZW 29,0 1015,4 81 - 178
13:29 11,7 8,6 11,0 ZW 27,0 1015,4 81 - 141
13:34 11,7 8,6 11,0 ZW 27,0 1015,4 81 - 125
13:39 11,7 8,6 10,0 ZW 19,0 1015,4 81 - 123
13:44 11,7 8,6 10,0 ZW 19,0 1015,4 81 - 135
13:49 11,7 8,6 10,0 WZW 19,0 1015,4 81 - 148
13:54 11,7 8,6 10,0 WZW 19,0 1015,4 81 - 146
13:59 11,7 8,6 8,0 WZW 19,0 1015,4 81 - 127
14:04 11,7 8,6 8,0 WZW 19,0 1015,4 81 - 127
14:09 11,7 8,6 10,0 WZW 21,0 1015,4 81 - 127

Download your copy of this data-set  here

Our weather-data as stored at Weather Underground. Script ontwikkeld door Jim McMurry. Aangepast voor de template door Leuven-Template.eu

Apparatuur in gebruik:

Weerstation
Davis VP2

Weerprogramma
Cumulus

Weercomputer
Gigabyte Brix

Webleverancier
GetHost

Davis VP2

Cumulus

Gigabyte Brix

GetHost